Showing default

GEESAT 5-04, 65553

Orbit data source: Space-Track

GEESAT 5-04, 65553 is a payload satellite owned by GeeSpace (CN) in LEO that was launched on Mon, 08 Sep 2025 UTC via a JIELONG-3 launch vehicle from the Yellow Sea Launch Area, China (YSLA). Payload-class satellites include a variety of spacecraft equipped with specific instruments for various scientific and technological missions. These include communications satellites like Starlink; space stations such as the ISS; scientific satellites like the Hubble; Earth observation satellites from companies like Planet Labs, Umbra, and HawkEye 360; GPS; miniature CubeSats for education and research; and military/defense satellites.

Loading next visibility...
Identifier
65553, 2025-201D
Orbit
LEO
Country
Flag of CNCN / PRC
Related business
Manufacturer
GWCG
Mission
Operational Commercial Navigation
Bus & Motor
GPS100, Unknown motor
Mass
130 kg wet, 130 kg dry
Launch date (UTC)
2025-09-08 (9 months ago)
Launch vehicle
JIELONG-3
Launch site
Yellow Sea Launch Area, China (YSLA)
Object type
Payload
Rocket body
Debris
Shape & HBR
Box + 2 Pan, 14.5 m
Radar Cross Section
0.833 m², Large (>1 m²)

Expand to show TLE details & history
Last TLE update: 23 hours ago

TLE from 23 hours ago
0 GEESAT 5-04
1 65553U 25201D   26170.99970499  .00000901  00000-0  13346-3 0  9996
2 65553  49.9870  26.8753 0008138 281.8160  78.1866 14.84215395 42206
Epoch: 2026-06-19T23:59Z
TLE epoch observation values (Epoch: 2026-06-19T23:59:34.511Z)
Latitude
0.00004°
Longitude
118.76092°
Altitude
615.432 km
Speed
7.553 km/s
True Right ascension
01h 47m 30s
True Declination
0° 00' 00"
Sunlit
Object was in daylight at epoch
Visualization orbit readout
Latitude
Unknown
Longitude
Unknown
Altitude
Unknown
Speed
Unknown
Apparent Right ascension
Unknown
Apparent Declination
Unknown
Sunlit
N/A
Visualization observer readout
Local Sidereal Time
10:18:28
Azimuth
Unknown
Elevation
Unknown
Doppler factor
Unknown
Orbital elements
Apogee altitude
622.503 km
Perigee altitude
611.118 km
Semi-major axis
6,994.947 km
Eccentricity
0.00081
Inclination
49.987°
RAAN
26.8753°
Arg. of periapsis
281.816°
True anomaly
78.2779°
Mean anomaly
78.1866°
Eccentric anomaly
78.23225°
Mean motion
3.70994 °/min
Orbital period
97.04 mins
BSTAR
0.00013346
Loading maneuver chart data...
Computing Atmospheric mass density...
Loading historical data...
Loading historical data...
Loading historical data...
Loading historical data...
Loading historical data...
Loading historical data...
Loading historical data...

Documentation

Showing up to 5 results
|